Total_Precipitation_Accumulation
0.05 0.02 0.01 0.00 0.00 0.00 0.00 0.00 0.00 0.00 0.00 0.00 0.00 0.00 0.00 0.00 0.00 0.00 0.00 0.00 0.00 0.00 0.00 0.00 0.00 0.00 0.00 0.00 0.00 0.00 0.00 0.00 0.00 0.01 0.01 0.07 0.13 0.11 0.10 0.12 0.11 0.04 0.02 0.01
0.01 0.01 0.00 0.00 0.00 0.00 0.00 0.00 0.00 0.00 0.00 0.01 0.00 0.00 0.00 0.00 0.00 0.00 0.00 0.00 0.00 0.00 0.00 0.00 0.00 0.00 0.00 0.00 0.00 0.00 0.00 0.00 0.00 0.00 0.01 0.15 0.23 0.21 0.13 0.14 0.13 0.11 0.09 0.06
0.00 0.00 0.00 0.00 0.00 0.00 0.00 0.00 0.00 0.00 0.00 0.00 0.00 0.00 0.00 0.00 0.00 0.00 0.00 0.00 0.00 0.00 0.00 0.00 0.00 0.00 0.00 0.00 0.00 0.00 0.00 0.00 0.00 0.00 0.01 0.07 0.13 0.16 0.14 0.08 0.11 0.14 0.16 0.15
0.02 0.00 0.00 0.00 0.00 0.00 0.00 0.00 0.00 0.00 0.01 0.00 0.03 0.02 0.00 0.00 0.00 0.00 0.00 0.00 0.00 0.00 0.00 0.00 0.00 0.00 0.00 0.00 0.00 0.00 0.00 0.00 0.00 0.00 0.00 0.04 0.06 0.12 0.10 0.13 0.12 0.13 0.17 0.12
0.04 0.00 0.00 0.00 0.00 0.00 0.00 0.00 0.00 0.01 0.02 0.04 0.01 0.06 0.01 0.00 0.00 0.00 0.00 0.00 0.00 0.00 0.00 0.00 0.00 0.00 0.00 0.00 0.00 0.00 0.00 0.00 0.00 0.00 0.00 0.03 0.09 0.08 0.09 0.10 0.10 0.09 0.10 0.07
0.03 0.00 0.00 0.00 0.00 0.00 0.01 0.02 0.02 0.05 0.11 0.13 0.00 0.04 0.02 0.00 0.00 0.00 0.00 0.00 0.00 0.00 0.00 0.00 0.00 0.00 0.00 0.00 0.00 0.00 0.00 0.00 0.00 0.00 0.01 0.01 0.08 0.07 0.05 0.03 0.04 0.07 0.08 0.05
0.24 0.06 0.01 0.00 0.01 0.00 0.05 0.19 0.21 0.18 0.21 0.06 0.00 0.02 0.07 0.00 0.00 0.00 0.00 0.00 0.00 0.00 0.00 0.00 0.00 0.00 0.00 0.00 0.00 0.00 0.00 0.00 0.00 0.00 0.00 0.00 0.02 0.08 0.05 0.04 0.05 0.05 0.04 0.03
0.19 0.11 0.04 0.01 0.00 0.02 0.03 0.08 0.21 0.07 0.01 0.00 0.01 0.02 0.02 0.00 0.00 0.00 0.00 0.00 0.00 0.00 0.00 0.00 0.00 0.00 0.00 0.00 0.00 0.00 0.00 0.00 0.00 0.00 0.00 0.00 0.00 0.04 0.04 0.04 0.05 0.05 0.04 0.03
0.07 0.02 0.00 0.00 0.00 0.06 0.15 0.24 0.12 0.21 0.16 0.19 0.02 0.01 0.00 0.00 0.00 0.00 0.00 0.00 0.00 0.00 0.00 0.00 0.00 0.00 0.00 0.00 0.00 0.00 0.00 0.00 0.00 0.00 0.00 0.00 0.00 0.04 0.03 0.03 0.03 0.02 0.02 0.01
0.00 0.01 0.00 0.02 0.03 0.04 0.07 0.07 0.15 0.52 0.30 0.11 0.07 0.06 0.00 0.00 0.00 0.00 0.00 0.00 0.00 0.00 0.00 0.00 0.00 0.00 0.00 0.00 0.00 0.00 0.00 0.00 0.00 0.02 0.02 0.01 0.02 0.03 0.02 0.02 0.01 0.01 0.01 0.00
0.01 0.03 0.02 0.09 0.22 0.07 0.04 0.18 0.17 0.16 0.08 0.09 0.05 0.08 0.01 0.00 0.00 0.02 0.01 0.01 0.01 0.01 0.00 0.00 0.00 0.00 0.00 0.00 0.00 0.00 0.00 0.00 0.00 0.01 0.00 0.01 0.01 0.02 0.01 0.01 0.00 0.00 0.01 0.01
0.00 0.07 0.08 0.06 0.03 0.08 0.05 0.04 0.10 0.35 0.16 0.21 0.17 0.06 0.01 0.01 0.00 0.02 0.03 0.03 0.02 0.01 0.00 0.00 0.00 0.00 0.00 0.00 0.00 0.00 0.00 0.00 0.01 0.00 0.00 0.00 0.00 0.00 0.00 0.00 0.01 0.01 0.01 0.01
0.03 0.23 0.22 0.20 0.34 0.28 0.31 0.08 0.17 0.39 0.86 0.59 0.30 0.07 0.00 0.01 0.01 0.01 0.01 0.03 0.01 0.00 0.00 0.00 0.00 0.00 0.00 0.00 0.02 0.04 0.04 0.01 0.01 0.00 0.00 0.00 0.00 0.00 0.00 0.00 0.00 0.01 0.01 0.02
0.22 0.29 0.25 0.37 0.60 0.70 0.43 0.15 0.30 0.80 1.23 0.37 0.17 0.03 0.01 0.01 0.03 0.02 0.02 0.03 0.06 0.02 0.01 0.00 0.00 0.00 0.00 0.00 0.05 0.05 0.04 0.02 0.02 0.00 0.00 0.01 0.00 0.00 0.00 0.00 0.00 0.01 0.02 0.01
0.44 0.51 0.61 0.47 0.33 0.92 0.51 0.20 0.28 0.81 0.60 0.56 0.17 0.07 0.02 0.01 0.04 0.08 0.07 0.11 0.04 0.02 0.00 0.00 0.00 0.00 0.00 0.00 0.03 0.04 0.07 0.06 0.03 0.01 0.01 0.00 0.00 0.00 0.00 0.01 0.01 0.01 0.01 0.01
0.44 0.63 0.75 0.46 0.16 0.31 0.32 0.11 0.20 0.19 0.31 0.41 0.17 0.22 0.05 0.02 0.11 0.28 0.16 0.21 0.07 0.03 0.00 0.00 0.00 0.00 0.00 0.00 0.01 0.02 0.05 0.04 0.04 0.03 0.01 0.00 0.00 0.00 0.00 0.01 0.01 0.03 0.03 0.04
0.27 0.41 0.72 0.61 0.36 0.24 0.41 0.26 0.15 0.14 0.20 0.33 0.30 0.19 0.07 0.07 0.27 0.29 0.30 0.30 0.07 0.01 0.00 0.00 0.00 0.00 0.00 0.00 0.01 0.01 0.02 0.03 0.03 0.02 0.01 0.00 0.00 0.02 0.02 0.02 0.01 0.03 0.06 0.10
0.07 0.22 0.44 0.49 0.48 0.51 0.43 0.25 0.11 0.13 0.16 0.21 0.24 0.14 0.04 0.15 0.18 0.12 0.30 0.25 0.10 0.01 0.00 0.00 0.00 0.00 0.00 0.00 0.00 0.01 0.02 0.02 0.03 0.03 0.09 0.07 0.05 0.08 0.15 0.14 0.16 0.15 0.10 0.07
0.01 0.08 0.20 0.18 0.19 0.21 0.08 0.13 0.19 0.13 0.12 0.09 0.10 0.15 0.11 0.08 0.11 0.19 0.13 0.03 0.02 0.02 0.01 0.00 0.00 0.00 0.00 0.00 0.00 0.01 0.02 0.02 0.05 0.04 0.14 0.33 0.36 0.37 0.41 0.35 0.25 0.20 0.13 0.03
0.01 0.02 0.13 0.07 0.11 0.00 0.02 0.05 0.03 0.01 0.04 0.01 0.02 0.04 0.04 0.09 0.30 0.28 0.09 0.02 0.01 0.01 0.01 0.01 0.00 0.00 0.00 0.00 0.03 0.05 0.04 0.08 0.16 0.22 0.16 0.33 0.46 0.43 0.28 0.18 0.09 0.02 0.00 0.00
0.02 0.06 0.09 0.08 0.15 0.00 0.00 0.00 0.00 0.00 0.01 0.00 0.00 0.01 0.03 0.07 0.08 0.08 0.08 0.07 0.03 0.02 0.01 0.01 0.01 0.02 0.04 0.05 0.12 0.24 0.21 0.31 0.31 0.57 0.42 0.22 0.27 0.17 0.02 0.00 0.00 0.00 0.00 0.00
0.01 0.01 0.02 0.03 0.05 0.00 0.00 0.00 0.00 0.00 0.00 0.00 0.00 0.01 0.08 0.08 0.07 0.07 0.01 0.01 0.08 0.16 0.22 0.25 0.18 0.14 0.18 0.20 0.33 0.68 0.46 0.33 0.23 0.18 0.12 0.07 0.05 0.01 0.00 0.00 0.00 0.00 0.00 0.00
0.00 0.00 0.00 0.00 0.00 0.00 0.00 0.00 0.00 0.00 0.00 0.00 0.00 0.01 0.05 0.07 0.18 0.11 0.01 0.00 0.01 0.06 0.25 0.50 0.45 0.41 0.52 0.38 0.31 0.42 0.26 0.15 0.05 0.03 0.00 0.00 0.00 0.00 0.00 0.00 0.00 0.00 0.00 0.00
0.00 0.00 0.00 0.00 0.00 0.00 0.00 0.00 0.00 0.00 0.00 0.00 0.00 0.00 0.00 0.00 0.00 0.00 0.00 0.00 0.01 0.01 0.00 0.01 0.01 0.02 0.06 0.08 0.03 0.04 0.02 0.01 0.00 0.00 0.00 0.00 0.00 0.00 0.00 0.00 0.00 0.00 0.00 0.00
0.00 0.00 0.00 0.00 0.00 0.00 0.00 0.00 0.00 0.00 0.00 0.00 0.00 0.00 0.00 0.00 0.00 0.00 0.00 0.00 0.00 0.00 0.00 0.00 0.00 0.00 0.00 0.00 0.00 0.00 0.00 0.00 0.00 0.00 0.00 0.00 0.00 0.00 0.00 0.00 0.00 0.00 0.00 0.00
0.00 0.00 0.00 0.00 0.00 0.00 0.00 0.00 0.00 0.00 0.00 0.00 0.00 0.00 0.00 0.00 0.00 0.00 0.00 0.00 0.00 0.00 0.00 0.00 0.00 0.00 0.00 0.00 0.00 0.00 0.00 0.00 0.00 0.00 0.00 0.00 0.00 0.00 0.00 0.00 0.00 0.00 0.00 0.00